Time,TemperatureF,DewpointF,PressureIn,WindDirection,WindDirectionDegrees,WindSpeedMPH,WindSpeedGustMPH,Humidity,HourlyPrecipIn,Conditions,Clouds,dailyrainin,SolarRadiationWatts/m^2,SoftwareType,DateUTC
2013-03-06 00:00:00,27.9,11.7,30.54,South,180,1.0,5.0,50,0.00,,,0.00,0,LWC V2.00 B727,2013-03-06 07:00:00,
2013-03-06 00:10:00,27.9,11.7,30.54,South,180,1.0,5.0,50,0.00,,,0.00,0,LWC V2.00 B727,2013-03-06 07:10:00,
2013-03-06 00:20:00,27.9,11.7,30.54,South,180,1.0,5.0,50,0.00,,,0.00,0,LWC V2.00 B727,2013-03-06 07:20:00,
2013-03-06 00:30:00,27.8,12.1,30.54,SSE,158,1.0,4.0,51,0.00,,,0.00,0,LWC V2.00 B727,2013-03-06 07:30:00,
2013-03-06 00:40:00,27.8,12.1,30.54,SSE,158,1.0,4.0,51,0.00,,,0.00,0,LWC V2.00 B727,2013-03-06 07:40:00,
2013-03-06 00:50:00,27.8,12.1,30.54,SSE,158,1.0,4.0,51,0.00,,,0.00,0,LWC V2.00 B727,2013-03-06 07:50:00,
2013-03-06 01:00:00,27.4,13.0,30.53,SSE,158,1.0,3.0,54,0.00,,,0.00,0,LWC V2.00 B727,2013-03-06 08:00:00,
2013-03-06 01:10:00,27.4,13.0,30.53,SSE,158,1.0,3.0,54,0.00,,,0.00,0,LWC V2.00 B727,2013-03-06 08:10:00,
2013-03-06 01:20:00,27.4,13.0,30.53,SSE,158,1.0,3.0,54,0.00,,,0.00,0,LWC V2.00 B727,2013-03-06 08:20:00,
2013-03-06 01:30:00,27.6,14.0,30.53,SSE,158,1.0,6.0,56,0.00,,,0.00,0,LWC V2.00 B727,2013-03-06 08:30:00,
2013-03-06 01:40:00,27.6,14.0,30.53,SSE,158,1.0,6.0,56,0.00,,,0.00,0,LWC V2.00 B727,2013-03-06 08:40:00,
2013-03-06 01:50:00,27.6,14.0,30.53,SSE,158,1.0,6.0,56,0.00,,,0.00,0,LWC V2.00 B727,2013-03-06 08:50:00,
2013-03-06 02:00:00,27.5,14.3,30.52,South,180,1.0,4.0,57,0.00,,,0.00,0,LWC V2.00 B727,2013-03-06 09:00:00,
2013-03-06 02:10:00,27.5,14.3,30.52,South,180,1.0,4.0,57,0.00,,,0.00,0,LWC V2.00 B727,2013-03-06 09:10:00,
2013-03-06 02:20:00,27.5,14.3,30.52,South,180,1.0,4.0,57,0.00,,,0.00,0,LWC V2.00 B727,2013-03-06 09:20:00,
2013-03-06 02:30:00,27.8,15.0,30.51,South,180,1.0,4.0,58,0.00,,,0.00,0,LWC V2.00 B727,2013-03-06 09:30:00,
2013-03-06 02:40:00,27.8,15.0,30.51,South,180,1.0,4.0,58,0.00,,,0.00,0,LWC V2.00 B727,2013-03-06 09:40:00,
2013-03-06 02:50:00,27.8,15.0,30.51,South,180,1.0,4.0,58,0.00,,,0.00,0,LWC V2.00 B727,2013-03-06 09:50:00,
2013-03-06 03:00:00,27.3,15.3,30.50,South,180,1.0,4.0,60,0.00,,,0.00,0,LWC V2.00 B727,2013-03-06 10:00:00,
2013-03-06 03:10:00,27.3,15.3,30.50,South,180,1.0,4.0,60,0.00,,,0.00,0,LWC V2.00 B727,2013-03-06 10:10:00,
2013-03-06 03:20:00,27.3,15.3,30.50,South,180,1.0,4.0,60,0.00,,,0.00,0,LWC V2.00 B727,2013-03-06 10:20:00,
2013-03-06 03:30:00,27.5,15.8,30.50,South,180,2.0,4.0,61,0.00,,,0.00,0,LWC V2.00 B727,2013-03-06 10:30:00,
2013-03-06 03:40:00,27.5,15.8,30.50,South,180,2.0,4.0,61,0.00,,,0.00,0,LWC V2.00 B727,2013-03-06 10:40:00,
2013-03-06 03:50:00,27.5,15.8,30.50,South,180,2.0,4.0,61,0.00,,,0.00,0,LWC V2.00 B727,2013-03-06 10:50:00,
2013-03-06 04:00:00,28.0,16.7,30.49,SSE,158,1.0,4.0,62,0.00,,,0.00,0,LWC V2.00 B727,2013-03-06 11:00:00,
2013-03-06 04:10:00,28.0,16.7,30.49,SSE,158,1.0,4.0,62,0.00,,,0.00,0,LWC V2.00 B727,2013-03-06 11:10:00,
2013-03-06 04:20:00,28.0,16.7,30.49,SSE,158,1.0,4.0,62,0.00,,,0.00,0,LWC V2.00 B727,2013-03-06 11:20:00,
2013-03-06 04:30:00,28.0,16.7,30.49,SSE,158,1.0,3.0,62,0.00,,,0.00,0,LWC V2.00 B727,2013-03-06 11:30:00,
2013-03-06 04:40:00,28.0,16.7,30.49,SSE,158,1.0,3.0,62,0.00,,,0.00,0,LWC V2.00 B727,2013-03-06 11:40:00,
2013-03-06 04:50:00,28.0,16.7,30.49,SSE,158,1.0,3.0,62,0.00,,,0.00,0,LWC V2.00 B727,2013-03-06 11:50:00,
2013-03-06 05:00:00,27.6,16.7,30.48,SSE,158,1.0,4.0,63,0.00,,,0.00,0,LWC V2.00 B727,2013-03-06 12:00:00,
2013-03-06 05:10:00,27.6,16.7,30.48,SSE,158,1.0,4.0,63,0.00,,,0.00,0,LWC V2.00 B727,2013-03-06 12:10:00,
2013-03-06 05:20:00,27.6,16.7,30.48,SSE,158,1.0,4.0,63,0.00,,,0.00,0,LWC V2.00 B727,2013-03-06 12:20:00,
2013-03-06 05:30:00,27.5,16.2,30.48,SSE,158,1.0,3.0,62,0.00,,,0.00,0,LWC V2.00 B727,2013-03-06 12:30:00,
2013-03-06 05:40:00,27.5,16.2,30.48,SSE,158,1.0,3.0,62,0.00,,,0.00,0,LWC V2.00 B727,2013-03-06 12:40:00,
2013-03-06 05:50:00,27.5,16.2,30.48,SSE,158,1.0,3.0,62,0.00,,,0.00,0,LWC V2.00 B727,2013-03-06 12:50:00,
2013-03-06 06:00:00,26.9,16.4,30.47,SSE,158,0.0,4.0,64,0.00,,,0.00,0,LWC V2.00 B727,2013-03-06 13:00:00,
2013-03-06 06:10:00,26.9,16.4,30.47,SSE,158,0.0,4.0,64,0.00,,,0.00,0,LWC V2.00 B727,2013-03-06 13:10:00,
2013-03-06 06:20:00,26.9,16.4,30.47,SSE,158,0.0,4.0,64,0.00,,,0.00,0,LWC V2.00 B727,2013-03-06 13:20:00,
2013-03-06 06:30:00,26.9,16.4,30.47,SSE,158,0.0,4.0,64,0.00,,,0.00,0,LWC V2.00 B727,2013-03-06 13:30:00,
2013-03-06 06:40:00,26.3,16.2,30.47,SSE,158,1.0,4.0,65,0.00,,,0.00,0,LWC V2.00 B727,2013-03-06 13:40:00,
2013-03-06 06:50:00,26.3,16.2,30.47,SSE,158,1.0,4.0,65,0.00,,,0.00,0,LWC V2.00 B727,2013-03-06 13:50:00,
2013-03-06 07:00:00,26.3,16.2,30.47,SSE,158,1.0,4.0,65,0.00,,,0.00,0,LWC V2.00 B727,2013-03-06 14:00:00,
2013-03-06 07:10:00,27.5,17.0,30.47,SSE,158,1.0,4.0,64,0.00,,,0.00,17,LWC V2.00 B727,2013-03-06 14:10:00,
2013-03-06 07:20:00,27.5,17.0,30.47,SSE,158,1.0,4.0,64,0.00,,,0.00,17,LWC V2.00 B727,2013-03-06 14:20:00,
2013-03-06 07:30:00,27.5,17.0,30.47,SSE,158,1.0,4.0,64,0.00,,,0.00,17,LWC V2.00 B727,2013-03-06 14:30:00,
2013-03-06 07:40:00,28.7,17.7,30.47,SSE,158,1.0,4.0,63,0.00,,,0.00,49,LWC V2.00 B727,2013-03-06 14:40:00,
2013-03-06 07:50:00,28.7,17.7,30.47,SSE,158,1.0,4.0,63,0.00,,,0.00,49,LWC V2.00 B727,2013-03-06 14:50:00,
2013-03-06 08:00:00,28.7,17.7,30.47,SSE,158,1.0,4.0,63,0.00,,,0.00,49,LWC V2.00 B727,2013-03-06 15:00:00,
2013-03-06 08:10:00,32.2,20.7,30.46,SSE,158,1.0,4.0,62,0.00,,,0.00,168,LWC V2.00 B727,2013-03-06 15:10:00,
2013-03-06 08:20:00,32.2,20.7,30.46,SSE,158,1.0,4.0,62,0.00,,,0.00,168,LWC V2.00 B727,2013-03-06 15:20:00,
2013-03-06 08:30:00,32.2,20.7,30.46,SSE,158,1.0,4.0,62,0.00,,,0.00,168,LWC V2.00 B727,2013-03-06 15:30:00,
2013-03-06 08:40:00,38.4,21.4,30.45,SSE,158,1.0,4.0,50,0.00,,,0.00,370,LWC V2.00 B727,2013-03-06 15:40:00,
2013-03-06 08:50:00,38.4,21.4,30.45,SSE,158,1.0,4.0,50,0.00,,,0.00,370,LWC V2.00 B727,2013-03-06 15:50:00,
2013-03-06 09:00:00,43.0,23.1,30.45,NNE,22,1.0,5.0,45,0.00,,,0.00,462,LWC V2.00 B727,2013-03-06 16:00:00,
2013-03-06 09:10:00,43.0,23.1,30.45,NNE,22,1.0,5.0,45,0.00,,,0.00,462,LWC V2.00 B727,2013-03-06 16:10:00,
2013-03-06 09:20:00,43.0,23.1,30.45,NNE,22,1.0,5.0,45,0.00,,,0.00,462,LWC V2.00 B727,2013-03-06 16:20:00,
2013-03-06 09:30:00,46.8,23.2,30.44,North,0,2.0,10.0,39,0.00,,,0.00,559,LWC V2.00 B727,2013-03-06 16:30:00,
2013-03-06 09:40:00,46.8,23.2,30.44,North,0,2.0,10.0,39,0.00,,,0.00,559,LWC V2.00 B727,2013-03-06 16:40:00,
2013-03-06 09:50:00,46.8,23.2,30.44,North,0,2.0,10.0,39,0.00,,,0.00,559,LWC V2.00 B727,2013-03-06 16:50:00,
2013-03-06 10:00:00,48.7,23.6,30.43,WSW,248,6.0,14.0,37,0.00,,,0.00,652,LWC V2.00 B727,2013-03-06 17:00:00,
2013-03-06 10:10:00,48.7,23.6,30.43,WSW,248,6.0,14.0,37,0.00,,,0.00,652,LWC V2.00 B727,2013-03-06 17:10:00,
2013-03-06 10:20:00,48.7,23.6,30.43,WSW,248,6.0,14.0,37,0.00,,,0.00,652,LWC V2.00 B727,2013-03-06 17:20:00,
2013-03-06 10:30:00,50.6,24.6,30.42,SW,225,6.0,16.0,36,0.00,,,0.00,732,LWC V2.00 B727,2013-03-06 17:30:00,
2013-03-06 10:40:00,50.6,24.6,30.42,SW,225,6.0,16.0,36,0.00,,,0.00,732,LWC V2.00 B727,2013-03-06 17:40:00,
2013-03-06 10:50:00,50.6,24.6,30.42,SW,225,6.0,16.0,36,0.00,,,0.00,732,LWC V2.00 B727,2013-03-06 17:50:00,
2013-03-06 11:00:00,51.4,25.4,30.40,SW,225,7.0,15.0,36,0.00,,,0.00,809,LWC V2.00 B727,2013-03-06 18:00:00,
2013-03-06 11:10:00,51.4,25.4,30.40,SW,225,7.0,15.0,36,0.00,,,0.00,809,LWC V2.00 B727,2013-03-06 18:10:00,
2013-03-06 11:20:00,51.4,25.4,30.40,SW,225,7.0,15.0,36,0.00,,,0.00,809,LWC V2.00 B727,2013-03-06 18:20:00,
2013-03-06 11:30:00,52.8,25.2,30.38,WSW,248,7.0,18.0,34,0.00,,,0.00,860,LWC V2.00 B727,2013-03-06 18:30:00,
2013-03-06 11:40:00,52.8,25.2,30.38,WSW,248,7.0,18.0,34,0.00,,,0.00,860,LWC V2.00 B727,2013-03-06 18:40:00,
2013-03-06 11:50:00,52.8,25.2,30.38,WSW,248,7.0,18.0,34,0.00,,,0.00,860,LWC V2.00 B727,2013-03-06 18:50:00,
2013-03-06 12:00:00,53.7,25.3,30.36,WSW,248,6.0,16.0,33,0.00,,,0.00,879,LWC V2.00 B727,2013-03-06 19:00:00,
2013-03-06 12:10:00,53.7,25.3,30.36,WSW,248,6.0,16.0,33,0.00,,,0.00,879,LWC V2.00 B727,2013-03-06 19:10:00,
2013-03-06 12:20:00,53.7,25.3,30.36,WSW,248,6.0,16.0,33,0.00,,,0.00,879,LWC V2.00 B727,2013-03-06 19:20:00,
2013-03-06 12:30:00,55.2,25.1,30.34,WSW,248,6.0,20.0,31,0.00,,,0.00,890,LWC V2.00 B727,2013-03-06 19:30:00,
2013-03-06 12:40:00,55.2,25.1,30.34,WSW,248,6.0,20.0,31,0.00,,,0.00,890,LWC V2.00 B727,2013-03-06 19:40:00,
2013-03-06 12:50:00,55.2,25.1,30.34,WSW,248,6.0,20.0,31,0.00,,,0.00,890,LWC V2.00 B727,2013-03-06 19:50:00,
2013-03-06 13:00:00,56.0,25.8,30.33,WSW,248,6.0,18.0,31,0.00,,,0.00,878,LWC V2.00 B727,2013-03-06 20:00:00,
2013-03-06 13:10:00,56.0,25.8,30.33,WSW,248,6.0,18.0,31,0.00,,,0.00,878,LWC V2.00 B727,2013-03-06 20:10:00,
2013-03-06 13:20:00,56.0,25.8,30.33,WSW,248,6.0,18.0,31,0.00,,,0.00,878,LWC V2.00 B727,2013-03-06 20:20:00,
2013-03-06 13:30:00,55.7,26.3,30.31,WSW,248,5.0,14.0,32,0.00,,,0.00,852,LWC V2.00 B727,2013-03-06 20:30:00,
2013-03-06 13:40:00,55.7,26.3,30.31,WSW,248,5.0,14.0,32,0.00,,,0.00,852,LWC V2.00 B727,2013-03-06 20:40:00,
2013-03-06 13:50:00,55.7,26.3,30.31,WSW,248,5.0,14.0,32,0.00,,,0.00,852,LWC V2.00 B727,2013-03-06 20:50:00,
2013-03-06 14:00:00,56.4,26.9,30.30,WSW,248,6.0,15.0,32,0.00,,,0.00,808,LWC V2.00 B727,2013-03-06 21:00:00,
2013-03-06 14:10:00,56.4,26.9,30.30,WSW,248,6.0,15.0,32,0.00,,,0.00,808,LWC V2.00 B727,2013-03-06 21:10:00,
2013-03-06 14:20:00,56.4,26.9,30.30,WSW,248,6.0,15.0,32,0.00,,,0.00,808,LWC V2.00 B727,2013-03-06 21:20:00,
2013-03-06 14:30:00,56.8,27.3,30.28,SW,225,6.0,16.0,32,0.00,,,0.00,748,LWC V2.00 B727,2013-03-06 21:30:00,
2013-03-06 14:40:00,56.8,27.3,30.28,SW,225,6.0,16.0,32,0.00,,,0.00,748,LWC V2.00 B727,2013-03-06 21:40:00,
2013-03-06 14:50:00,56.8,27.3,30.28,SW,225,6.0,16.0,32,0.00,,,0.00,748,LWC V2.00 B727,2013-03-06 21:50:00,
2013-03-06 15:00:00,57.5,27.1,30.27,WSW,248,5.0,14.0,31,0.00,,,0.00,672,LWC V2.00 B727,2013-03-06 22:00:00,
2013-03-06 15:10:00,57.5,27.1,30.27,WSW,248,5.0,14.0,31,0.00,,,0.00,672,LWC V2.00 B727,2013-03-06 22:10:00,
2013-03-06 15:20:00,57.5,27.1,30.27,WSW,248,5.0,14.0,31,0.00,,,0.00,672,LWC V2.00 B727,2013-03-06 22:20:00,
2013-03-06 15:30:00,56.1,25.9,30.29,WSW,248,6.0,15.0,31,0.00,,,0.00,584,LWC V2.00 B727,2013-03-06 22:30:00,
2013-03-06 15:40:00,56.1,25.9,30.29,WSW,248,6.0,15.0,31,0.00,,,0.00,584,LWC V2.00 B727,2013-03-06 22:40:00,
2013-03-06 15:50:00,56.1,25.9,30.29,WSW,248,6.0,15.0,31,0.00,,,0.00,584,LWC V2.00 B727,2013-03-06 22:50:00,
2013-03-06 16:00:00,53.6,25.2,30.27,WSW,248,5.0,12.0,33,0.00,,,0.00,328,LWC V2.00 B727,2013-03-06 23:00:00,
2013-03-06 16:10:00,53.6,25.2,30.27,WSW,248,5.0,12.0,33,0.00,,,0.00,328,LWC V2.00 B727,2013-03-06 23:10:00,
2013-03-06 16:20:00,53.6,25.2,30.27,WSW,248,5.0,12.0,33,0.00,,,0.00,328,LWC V2.00 B727,2013-03-06 23:20:00,
2013-03-06 16:30:00,53.6,25.2,30.27,WSW,248,5.0,12.0,33,0.00,,,0.00,328,LWC V2.00 B727,2013-03-06 23:30:00,
2013-03-06 16:40:00,54.9,24.8,30.27,WSW,248,5.0,17.0,31,0.00,,,0.00,462,LWC V2.00 B727,2013-03-06 23:40:00,
2013-03-06 16:50:00,54.9,24.8,30.27,WSW,248,5.0,17.0,31,0.00,,,0.00,462,LWC V2.00 B727,2013-03-06 23:50:00,
2013-03-06 17:00:00,54.9,24.8,30.27,WSW,248,5.0,17.0,31,0.00,,,0.00,462,LWC V2.00 B727,2013-03-07 00:00:00,
2013-03-06 17:10:00,51.5,23.4,30.27,WSW,248,5.0,13.0,33,0.00,,,0.00,150,LWC V2.00 B727,2013-03-07 00:10:00,
2013-03-06 17:20:00,51.5,23.4,30.27,WSW,248,5.0,13.0,33,0.00,,,0.00,150,LWC V2.00 B727,2013-03-07 00:20:00,
2013-03-06 17:30:00,51.5,23.4,30.27,WSW,248,5.0,13.0,33,0.00,,,0.00,150,LWC V2.00 B727,2013-03-07 00:30:00,
2013-03-06 17:40:00,51.9,24.4,30.26,SW,225,4.0,11.0,34,0.00,,,0.00,123,LWC V2.00 B727,2013-03-07 00:40:00,
2013-03-06 17:50:00,51.9,24.4,30.26,SW,225,4.0,11.0,34,0.00,,,0.00,123,LWC V2.00 B727,2013-03-07 00:50:00,
2013-03-06 18:00:00,51.9,24.4,30.26,SW,225,4.0,11.0,34,0.00,,,0.00,123,LWC V2.00 B727,2013-03-07 01:00:00,
2013-03-06 18:10:00,49.5,23.0,30.27,WSW,248,5.0,12.0,35,0.00,,,0.00,29,LWC V2.00 B727,2013-03-07 01:10:00,
2013-03-06 18:20:00,49.5,23.0,30.27,WSW,248,5.0,12.0,35,0.00,,,0.00,29,LWC V2.00 B727,2013-03-07 01:20:00,
2013-03-06 18:30:00,49.5,23.0,30.27,WSW,248,5.0,12.0,35,0.00,,,0.00,29,LWC V2.00 B727,2013-03-07 01:30:00,
2013-03-06 18:40:00,47.0,22.7,30.28,SSW,202,3.0,9.0,38,0.00,,,0.00,2,LWC V2.00 B727,2013-03-07 01:40:00,
2013-03-06 18:50:00,47.0,22.7,30.28,SSW,202,3.0,9.0,38,0.00,,,0.00,2,LWC V2.00 B727,2013-03-07 01:50:00,
2013-03-06 19:00:00,47.0,22.7,30.28,SSW,202,3.0,9.0,38,0.00,,,0.00,2,LWC V2.00 B727,2013-03-07 02:00:00,
2013-03-06 19:10:00,45.8,22.9,30.29,SW,225,3.0,10.0,40,0.00,,,0.00,0,LWC V2.00 B727,2013-03-07 02:10:00,
2013-03-06 19:20:00,45.8,22.9,30.29,SW,225,3.0,10.0,40,0.00,,,0.00,0,LWC V2.00 B727,2013-03-07 02:20:00,
2013-03-06 19:30:00,46.1,23.1,30.30,SSW,202,5.0,12.0,40,0.00,,,0.00,0,LWC V2.00 B727,2013-03-07 02:30:00,
2013-03-06 19:40:00,46.1,23.1,30.30,SSW,202,5.0,12.0,40,0.00,,,0.00,0,LWC V2.00 B727,2013-03-07 02:40:00,
2013-03-06 19:50:00,46.1,23.1,30.30,SSW,202,5.0,12.0,40,0.00,,,0.00,0,LWC V2.00 B727,2013-03-07 02:50:00,
2013-03-06 20:00:00,45.6,22.1,30.29,SSW,202,5.0,13.0,39,0.00,,,0.00,0,LWC V2.00 B727,2013-03-07 03:00:00,
2013-03-06 20:10:00,45.6,22.1,30.29,SSW,202,5.0,13.0,39,0.00,,,0.00,0,LWC V2.00 B727,2013-03-07 03:10:00,
2013-03-06 20:20:00,45.6,22.1,30.29,SSW,202,5.0,13.0,39,0.00,,,0.00,0,LWC V2.00 B727,2013-03-07 03:20:00,
2013-03-06 20:30:00,45.1,21.6,30.29,SSW,202,4.0,10.0,39,0.00,,,0.00,0,LWC V2.00 B727,2013-03-07 03:30:00,
2013-03-06 20:40:00,45.1,21.6,30.29,SSW,202,4.0,10.0,39,0.00,,,0.00,0,LWC V2.00 B727,2013-03-07 03:40:00,
2013-03-06 20:50:00,45.1,21.6,30.29,SSW,202,4.0,10.0,39,0.00,,,0.00,0,LWC V2.00 B727,2013-03-07 03:50:00,
2013-03-06 21:00:00,44.6,21.8,30.29,SSW,202,3.0,9.0,40,0.00,,,0.00,0,LWC V2.00 B727,2013-03-07 04:00:00,
2013-03-06 21:10:00,44.6,21.8,30.29,SSW,202,3.0,9.0,40,0.00,,,0.00,0,LWC V2.00 B727,2013-03-07 04:10:00,
2013-03-06 21:20:00,44.6,21.8,30.29,SSW,202,3.0,9.0,40,0.00,,,0.00,0,LWC V2.00 B727,2013-03-07 04:20:00,
2013-03-06 21:30:00,43.4,21.3,30.29,SSW,202,1.0,5.0,41,0.00,,,0.00,0,LWC V2.00 B727,2013-03-07 04:30:00,
2013-03-06 21:40:00,43.4,21.3,30.29,SSW,202,1.0,5.0,41,0.00,,,0.00,0,LWC V2.00 B727,2013-03-07 04:40:00,
2013-03-06 21:50:00,43.4,21.3,30.29,SSW,202,1.0,5.0,41,0.00,,,0.00,0,LWC V2.00 B727,2013-03-07 04:50:00,
2013-03-06 22:00:00,41.8,21.5,30.29,South,180,1.0,4.0,44,0.00,,,0.00,0,LWC V2.00 B727,2013-03-07 05:00:00,
2013-03-06 22:10:00,41.8,21.5,30.29,South,180,1.0,4.0,44,0.00,,,0.00,0,LWC V2.00 B727,2013-03-07 05:10:00,
2013-03-06 22:20:00,41.8,21.5,30.29,South,180,1.0,4.0,44,0.00,,,0.00,0,LWC V2.00 B727,2013-03-07 05:20:00,
2013-03-06 22:30:00,41.2,21.0,30.28,South,180,0.0,4.0,44,0.00,,,0.00,0,LWC V2.00 B727,2013-03-07 05:30:00,
2013-03-06 22:40:00,41.2,21.0,30.28,South,180,0.0,4.0,44,0.00,,,0.00,0,LWC V2.00 B727,2013-03-07 05:40:00,
2013-03-06 22:50:00,41.2,21.0,30.28,South,180,0.0,4.0,44,0.00,,,0.00,0,LWC V2.00 B727,2013-03-07 05:50:00,
2013-03-06 23:00:00,41.4,21.7,30.28,South,180,1.0,5.0,45,0.00,,,0.00,0,LWC V2.00 B727,2013-03-07 06:00:00,
2013-03-06 23:10:00,41.4,21.7,30.28,South,180,1.0,5.0,45,0.00,,,0.00,0,LWC V2.00 B727,2013-03-07 06:10:00,
2013-03-06 23:20:00,41.4,21.7,30.28,South,180,1.0,5.0,45,0.00,,,0.00,0,LWC V2.00 B727,2013-03-07 06:20:00,
2013-03-06 23:30:00,41.8,21.5,30.27,SSW,202,1.0,5.0,44,0.00,,,0.00,0,LWC V2.00 B727,2013-03-07 06:30:00,
2013-03-06 23:40:00,41.8,21.5,30.27,SSW,202,1.0,5.0,44,0.00,,,0.00,0,LWC V2.00 B727,2013-03-07 06:40:00,
2013-03-06 23:50:00,41.8,21.5,30.27,SSW,202,1.0,5.0,44,0.00,,,0.00,0,LWC V2.00 B727,2013-03-07 06:50:00,